Location: Oulou
(10.7667°N, 12.5167°W)
Time: 16:59:05
(UTC+00:00)

Cosmos 2219 Rocket - Pass Details

Date: 20 September 2019
Orbit: 829 x 845 km, 71.0° (Epoch: 20 October)

Event Time Altitude Azimuth Distance (km) Brightness Sun altitude
Rises 19:53:56 0° 360° (N) 3,365 5.4 -17.1°
Reaches altitude 10° 19:56:37 10° 10° (N) 2,434 4.5 -17.8°
Maximum altitude 20:01:33 32° 72° (ENE) 1,392 2.8 -19.0°
Enters shadow 20:01:42 32° 75° (ENE) 1,394 2.8 -19.0°
